Miscellaneous Local Product
Issued by NWS North Platte, NE

Home | Current Version | Previous Version | Graphics & Text | Print | Product List | Glossary On
Versions: 1 2 3 4 5 6 7 8 9 10 11 12 13 14 15 16 17 18 19 20 21 22 23 24 25 26 27 28 29 30 31 32 33 34 35 36 37 38 39 40 41 42 43 44 45 46 47 48 49 50
000
AXUS43 KLBF 271810
MISLBF


WESTERN AND NORTH CENTRAL NEBRASKA HOURLY WEATHER ROUNDUP
NATIONAL WEATHER SERVICE NORTH PLATTE NE
100 PM CDT MON JUL 27 2015

***STATIONS NOT REPORTING VARIABLES SUCH AS SKY/WEATHER OR
PRESSURE ARE PROVIDED BY THE NEBRASKA DEPARTMENT OF
ROADS...RAWS...AND APRS NETWORKS...AND ARE NOT UNDER
NATIONAL WEATHER SERVICE QUALITY CONTROL***

...OBSERVATIONS IN AND NEAR THE EASTERN PANHANDLE OF NEBRASKA...

CITY           SKY/WX    TMP DP  RH WIND       PRES   REMARKS
PINE RIDGE     SUNNY     88  65  46 SE15G21   29.79F HX  90
CHADRON        SUNNY     91  63  39 S9        29.76F HX  92
ALLIANCE       SUNNY     84  66  54 S17G25    29.84F
SIDNEY         SUNNY     84  65  52 SE9G17    29.88F
BIG SPRINGS      N/A     82  72  71 SE8         N/A
$$

...OBSERVATIONS IN NORTH CENTRAL NEBRASKA...

CITY           SKY/WX    TMP DP  RH WIND       PRES   REMARKS
VALENTINE      SUNNY     87  63  44 SE14G26   29.82F
THEDFORD       SUNNY     85  68  57 S14       29.85F
AINSWORTH      SUNNY     87  65  49 S18       29.83F
O`NEILL        MOSUNNY   91  66  44 S16G22    29.84F HX  93
ORD            SUNNY     88  65  46 S13       29.84F HX  90
BROKEN BOW     SUNNY     87  69  54 S15G24    29.86F HX  91
SPRINGVIEW       N/A     86  69  56 E8G20       N/A  HX  90
CHAMBERS         N/A     90  65  43 SW6         N/A  HX  92
EWING            N/A     88  79  75 SE3         N/A  HX 103
$$

...OBSERVATIONS IN SOUTHWEST NEBRASKA AND FAR NORTHEAST COLORADO...

CITY           SKY/WX    TMP DP  RH WIND       PRES   REMARKS
WRAY           FAIR      92  60  33 S14       29.86F HX  91
HOLYOKE        FAIR      86  64  48 S13       29.87F
IMPERIAL       MOSUNNY   88  66  48 SE16      29.85F HX  90
OGALLALA       SUNNY     82  68  63 S10       29.85F
NORTH PLATTE   SUNNY     83  68  60 S15       29.85F
MCCOOK         MOSUNNY   88  67  49 S17       29.86F HX  91
LEXINGTON      MOSUNNY   85  70  60 SE14      29.87F HX  90
PAXTON           N/A     81  72  74 SE9         N/A
BRADY            N/A     83  71  67 CALM        N/A
CALLAWAY         N/A     83  74  75 S16         N/A  HX  90
$$

...NORTH PLATTE AREA...

CITY           SKY/WX    TMP DP  RH WIND       PRES   REMARKS
AIRPORT        SUNNY     83  68  60 S15       29.85F
DOWNTOWN         N/A     84  69  61 S7G15       N/A
HILLCREST        N/A     83  69  61 S12G21      N/A
$$

...SOME WEATHER OBSERVATIONS FROM AROUND THE REGION...

CITY           SKY/WX    TMP DP  RH WIND       PRES   REMARKS
DENVER         MOSUNNY   90  43  19 SW7       29.93F
LARAMIE        SUNNY     78  39  24 SW20G25   30.06S
CHEYENNE       SUNNY     87  41  19 NW12      29.97F
SCOTTSBLUFF    SUNNY     85  65  51 E13       29.83F
RAPID CITY     SUNNY     85  64  49 S17       29.75F
PIERRE         SUNNY     91  62  37 SE22      29.75F HX  91
WINNER         FAIR      90  63  40 SE14G25   29.80F HX  91
SIOUX FALLS    MOSUNNY   85  69  58 S16       29.86S
OMAHA          CLOUDY    83  78  85 SE12      29.90F HX  93
GRAND ISLAND   SUNNY     84  68  58 SE12      29.89F
KANSAS CITY    CLOUDY    86  77  74 S7        29.94R HX  97
WICHITA        PTSUNNY   94  70  45 S18G25    29.90F HX 100
HAYS           MOSUNNY   90  68  48 S22G29    29.87S HX  93
LIBERAL        SUNNY     91  68  46 S21       29.91F HX  95
GOODLAND       MOSUNNY   82  68  62 S21G29    29.90F
$$



USA.gov is the U.S. government's official web portal to all federal, state and local government web resources and services.